Time,TemperatureF,DewpointF,PressureIn,WindDirection,WindDirectionDegrees,WindSpeedMPH,WindSpeedGustMPH,Humidity,HourlyPrecipIn,Conditions,Clouds,dailyrainin,SoftwareType,DateUTC
2013-05-11 00:11:00,55.0,46.9,30.13,NE,45,0.0,-999.0,74,-99.99,,,0.00,Acu-Link.com,2013-05-11 07:11:00,
2013-05-11 00:27:00,55.0,45.8,30.13,NE,45,0.0,-999.0,71,-99.99,,,0.00,Acu-Link.com,2013-05-11 07:27:00,
2013-05-11 00:42:00,54.9,46.0,30.14,NNE,22,0.0,-999.0,72,-99.99,,,0.00,Acu-Link.com,2013-05-11 07:42:00,
2013-05-11 00:57:00,54.5,46.7,30.13,NE,45,0.0,-999.0,75,-99.99,,,0.00,Acu-Link.com,2013-05-11 07:57:00,
2013-05-11 01:12:00,54.3,46.9,30.12,NE,45,0.0,-999.0,76,-99.99,,,0.00,Acu-Link.com,2013-05-11 08:12:00,
2013-05-11 01:27:00,54.1,46.7,30.13,NNE,22,0.0,-999.0,76,-99.99,,,0.00,Acu-Link.com,2013-05-11 08:27:00,
2013-05-11 01:42:00,53.6,46.9,30.12,North,0,0.0,-999.0,78,-99.99,,,0.00,Acu-Link.com,2013-05-11 08:42:00,
2013-05-11 01:57:00,52.0,47.9,30.12,ENE,67,0.0,-999.0,86,-99.99,,,0.00,Acu-Link.com,2013-05-11 08:57:00,
2013-05-11 02:12:00,52.2,48.4,30.13,NE,45,0.0,-999.0,87,-99.99,,,0.00,Acu-Link.com,2013-05-11 09:12:00,
2013-05-11 02:27:00,52.7,48.0,30.12,NE,45,0.0,-999.0,84,-99.99,,,0.00,Acu-Link.com,2013-05-11 09:27:00,
2013-05-11 02:43:00,52.9,46.9,30.12,NE,45,0.0,-999.0,80,-99.99,,,0.00,Acu-Link.com,2013-05-11 09:43:00,
2013-05-11 02:58:00,53.1,46.1,30.11,NE,45,0.0,-999.0,77,-99.99,,,0.00,Acu-Link.com,2013-05-11 09:58:00,
2013-05-11 03:13:00,53.6,46.2,30.12,NNE,22,0.0,-999.0,76,-99.99,,,0.00,Acu-Link.com,2013-05-11 10:13:00,
2013-05-11 03:28:00,53.4,45.3,30.11,North,0,0.0,-999.0,74,-99.99,,,0.00,Acu-Link.com,2013-05-11 10:28:00,
2013-05-11 03:43:00,51.8,51.3,30.11,North,0,0.0,-999.0,98,-99.99,,,0.00,Acu-Link.com,2013-05-11 10:43:00,
2013-05-11 03:58:00,50.7,45.7,30.11,ENE,67,0.0,-999.0,83,-99.99,,,0.00,Acu-Link.com,2013-05-11 10:58:00,
2013-05-11 04:13:00,50.4,46.7,30.12,NE,45,0.0,-999.0,87,-99.99,,,0.00,Acu-Link.com,2013-05-11 11:13:00,
2013-05-11 04:28:00,49.6,49.1,30.10,ENE,67,0.0,-999.0,98,-99.99,,,0.00,Acu-Link.com,2013-05-11 11:28:00,
2013-05-11 04:43:00,49.6,49.1,30.11,ENE,67,0.0,-999.0,98,-99.99,,,0.00,Acu-Link.com,2013-05-11 11:43:00,
2013-05-11 04:58:00,49.5,49.0,30.11,West,270,0.0,-999.0,98,-99.99,,,0.00,Acu-Link.com,2013-05-11 11:58:00,
2013-05-11 05:14:00,48.7,48.2,30.11,NE,45,0.0,-999.0,98,-99.99,,,0.00,Acu-Link.com,2013-05-11 12:14:00,
2013-05-11 05:29:00,48.9,42.3,30.11,East,90,0.0,-999.0,78,-99.99,,,0.00,Acu-Link.com,2013-05-11 12:29:00,
2013-05-11 05:44:00,49.5,44.9,30.11,ENE,67,0.0,-999.0,84,-99.99,,,0.00,Acu-Link.com,2013-05-11 12:44:00,
2013-05-11 05:59:00,49.5,43.9,30.11,ENE,67,0.0,-999.0,81,-99.99,,,0.00,Acu-Link.com,2013-05-11 12:59:00,
2013-05-11 06:14:00,49.8,42.5,30.11,East,90,0.0,-999.0,76,-99.99,,,0.00,Acu-Link.com,2013-05-11 13:14:00,
2013-05-11 06:29:00,50.0,42.0,30.12,East,90,0.0,-999.0,74,-99.99,,,0.00,Acu-Link.com,2013-05-11 13:29:00,
2013-05-11 06:44:00,50.5,43.6,30.13,NE,45,0.0,-999.0,77,-99.99,,,0.00,Acu-Link.com,2013-05-11 13:44:00,
2013-05-11 06:59:00,50.7,44.4,30.13,NNW,337,0.0,-999.0,79,-99.99,,,0.00,Acu-Link.com,2013-05-11 13:59:00,
2013-05-11 07:14:00,51.1,47.7,30.13,NE,45,0.0,-999.0,88,-99.99,,,0.00,Acu-Link.com,2013-05-11 14:14:00,
2013-05-11 07:30:00,53.4,46.4,30.13,SE,135,0.0,-999.0,77,-99.99,,,0.00,Acu-Link.com,2013-05-11 14:30:00,
2013-05-11 07:45:00,55.6,46.0,30.13,SSW,202,0.0,-999.0,70,-99.99,,,0.00,Acu-Link.com,2013-05-11 14:45:00,
2013-05-11 08:00:00,57.7,43.0,30.13,SW,225,0.0,-999.0,58,-99.99,,,0.00,Acu-Link.com,2013-05-11 15:00:00,
2013-05-11 08:15:00,59.9,42.2,30.13,NNE,22,0.0,-999.0,52,-99.99,,,0.00,Acu-Link.com,2013-05-11 15:15:00,
2013-05-11 08:30:00,61.3,43.0,30.14,ENE,67,2.2,-999.0,51,-99.99,,,0.00,Acu-Link.com,2013-05-11 15:30:00,
2013-05-11 08:45:00,62.6,43.7,30.14,West,270,0.0,-999.0,50,-99.99,,,0.00,Acu-Link.com,2013-05-11 15:45:00,
2013-05-11 09:00:00,64.0,42.8,30.14,SSW,202,0.0,-999.0,46,-99.99,,,0.00,Acu-Link.com,2013-05-11 16:00:00,
2013-05-11 09:15:00,65.1,42.0,30.14,WSW,247,0.0,-999.0,43,-99.99,,,0.00,Acu-Link.com,2013-05-11 16:15:00,
2013-05-11 09:30:00,66.7,41.6,30.14,ENE,67,1.7,-999.0,40,-99.99,,,0.00,Acu-Link.com,2013-05-11 16:30:00,
2013-05-11 09:46:00,69.3,41.9,30.14,SSW,202,0.0,-999.0,37,-99.99,,,0.00,Acu-Link.com,2013-05-11 16:46:00,
2013-05-11 10:01:00,72.3,42.3,30.14,North,0,2.2,-999.0,34,-99.99,,,0.00,Acu-Link.com,2013-05-11 17:01:00,
2013-05-11 10:16:00,74.3,40.8,30.14,SSE,157,3.7,-999.0,30,-99.99,,,0.00,Acu-Link.com,2013-05-11 17:16:00,
2013-05-11 10:31:00,78.1,38.4,30.14,South,180,3.7,-999.0,24,-99.99,,,0.00,Acu-Link.com,2013-05-11 17:31:00,
2013-05-11 10:46:00,81.1,32.1,30.14,SSE,157,1.1,-999.0,17,-99.99,,,0.00,Acu-Link.com,2013-05-11 17:46:00,
2013-05-11 11:01:00,85.1,19.9,30.15,East,90,2.2,-999.0,9,-99.99,,,0.00,Acu-Link.com,2013-05-11 18:01:00,
2013-05-11 11:16:00,85.5,10.9,30.14,South,180,2.7,-999.0,6,-99.99,,,0.00,Acu-Link.com,2013-05-11 18:16:00,
2013-05-11 11:31:00,84.6,13.8,30.14,ESE,112,3.2,-999.0,7,-99.99,,,0.00,Acu-Link.com,2013-05-11 18:31:00,
2013-05-11 11:46:00,85.1,10.7,30.14,SSE,157,5.8,-999.0,6,-99.99,,,0.00,Acu-Link.com,2013-05-11 18:46:00,
2013-05-11 12:02:00,87.1,3.2,30.15,NNE,22,3.2,-999.0,4,-99.99,,,0.00,Acu-Link.com,2013-05-11 19:02:00,
2013-05-11 12:17:00,87.3,8.2,30.14,West,270,3.2,-999.0,5,-99.99,,,0.00,Acu-Link.com,2013-05-11 19:17:00,
2013-05-11 12:32:00,87.6,-10.9,30.14,ESE,112,4.7,-999.0,2,-99.99,,,0.00,Acu-Link.com,2013-05-11 19:32:00,
2013-05-11 12:47:00,87.3,-2.8,30.14,SSE,157,2.2,-999.0,3,-99.99,,,0.00,Acu-Link.com,2013-05-11 19:47:00,
2013-05-11 13:02:00,89.1,-10.0,30.14,NNW,337,4.7,-999.0,2,-99.99,,,0.00,Acu-Link.com,2013-05-11 20:02:00,
2013-05-11 13:17:00,87.8,-24.2,30.13,South,180,1.7,-999.0,0,-99.99,,,0.00,Acu-Link.com,2013-05-11 20:17:00,
2013-05-11 13:32:00,89.4,-9.8,30.13,South,180,1.7,-999.0,2,-99.99,,,0.00,Acu-Link.com,2013-05-11 20:32:00,
2013-05-11 13:47:00,90.3,-22.7,30.13,ENE,67,4.2,-999.0,0,-99.99,,,0.00,Acu-Link.com,2013-05-11 20:47:00,
2013-05-11 14:02:00,91.8,-21.9,30.13,SSE,157,5.8,-999.0,0,-99.99,,,0.00,Acu-Link.com,2013-05-11 21:02:00,
2013-05-11 14:18:00,90.5,-22.6,30.12,West,270,2.2,-999.0,0,-99.99,,,0.00,Acu-Link.com,2013-05-11 21:18:00,
2013-05-11 14:33:00,90.5,-22.6,30.12,North,0,2.7,-999.0,0,-99.99,,,0.00,Acu-Link.com,2013-05-11 21:33:00,
2013-05-11 14:48:00,90.5,-22.6,30.11,SW,225,4.2,-999.0,0,-99.99,,,0.00,Acu-Link.com,2013-05-11 21:48:00,
2013-05-11 15:03:00,92.1,-21.7,30.11,South,180,2.2,-999.0,0,-99.99,,,0.00,Acu-Link.com,2013-05-11 22:03:00,
2013-05-11 15:18:00,91.6,-22.0,30.10,NNW,337,6.3,-999.0,0,-99.99,,,0.00,Acu-Link.com,2013-05-11 22:18:00,
2013-05-11 15:33:00,90.7,-22.5,30.11,South,180,0.0,-999.0,0,-99.99,,,0.00,Acu-Link.com,2013-05-11 22:33:00,
2013-05-11 15:48:00,88.7,-23.7,30.09,ESE,112,4.2,-999.0,0,-99.99,,,0.00,Acu-Link.com,2013-05-11 22:48:00,
2013-05-11 16:03:00,87.1,-24.6,30.09,East,90,4.2,-999.0,0,-99.99,,,0.00,Acu-Link.com,2013-05-11 23:03:00,
2013-05-11 16:18:00,87.1,-24.6,30.09,South,180,0.0,-999.0,1,-99.99,,,0.00,Acu-Link.com,2013-05-11 23:18:00,
2013-05-11 16:34:00,90.1,-22.9,30.08,East,90,4.7,-999.0,0,-99.99,,,0.00,Acu-Link.com,2013-05-11 23:34:00,
2013-05-11 16:49:00,88.5,-23.8,30.08,NE,45,3.7,-999.0,0,-99.99,,,0.00,Acu-Link.com,2013-05-11 23:49:00,
2013-05-11 17:04:00,88.9,4.4,30.11,West,270,1.1,-999.0,4,-99.99,,,0.00,Acu-Link.com,2013-05-12 00:04:00,
2013-05-11 17:19:00,90.7,5.6,30.10,ESE,112,1.1,-999.0,4,-99.99,,,0.00,Acu-Link.com,2013-05-12 00:19:00,
2013-05-11 17:34:00,84.2,21.7,30.09,WSW,247,4.2,-999.0,10,-99.99,,,0.00,Acu-Link.com,2013-05-12 00:34:00,
2013-05-11 17:49:00,88.0,8.7,30.08,West,270,0.0,-999.0,5,-99.99,,,0.00,Acu-Link.com,2013-05-12 00:49:00,
2013-05-11 18:04:00,84.9,33.7,30.08,WNW,292,0.0,-999.0,16,-99.99,,,0.00,Acu-Link.com,2013-05-12 01:04:00,
2013-05-11 18:19:00,81.7,35.4,30.08,WSW,247,0.0,-999.0,19,-99.99,,,0.00,Acu-Link.com,2013-05-12 01:19:00,
2013-05-11 18:34:00,79.9,36.5,30.10,NNE,22,1.1,-999.0,21,-99.99,,,0.00,Acu-Link.com,2013-05-12 01:34:00,
2013-05-11 18:49:00,78.4,41.6,30.10,NE,45,0.0,-999.0,27,-99.99,,,0.00,Acu-Link.com,2013-05-12 01:49:00,
2013-05-11 19:05:00,76.5,40.0,30.09,North,0,0.0,-999.0,27,-99.99,,,0.00,Acu-Link.com,2013-05-12 02:05:00,
2013-05-11 19:20:00,74.8,40.4,30.09,NNW,337,0.0,-999.0,29,-99.99,,,0.00,Acu-Link.com,2013-05-12 02:20:00,
2013-05-11 19:35:00,71.2,44.3,30.10,NE,45,0.0,-999.0,38,-99.99,,,0.00,Acu-Link.com,2013-05-12 02:35:00,
2013-05-11 19:50:00,68.4,44.4,30.10,NNW,337,0.0,-999.0,42,-99.99,,,0.00,Acu-Link.com,2013-05-12 02:50:00,
2013-05-11 20:05:00,66.4,44.4,30.12,East,90,0.0,-999.0,45,-99.99,,,0.00,Acu-Link.com,2013-05-12 03:05:00,
2013-05-11 20:20:00,64.8,44.6,30.12,NNW,337,0.0,-999.0,48,-99.99,,,0.00,Acu-Link.com,2013-05-12 03:20:00,
2013-05-11 20:35:00,63.3,46.9,30.11,NNE,22,0.0,-999.0,55,-99.99,,,0.00,Acu-Link.com,2013-05-12 03:35:00,
2013-05-11 20:50:00,62.2,44.4,30.12,NE,45,0.0,-999.0,52,-99.99,,,0.00,Acu-Link.com,2013-05-12 03:50:00,
2013-05-11 21:05:00,61.3,41.4,30.13,ENE,67,0.0,-999.0,48,-99.99,,,0.00,Acu-Link.com,2013-05-12 04:05:00,
2013-05-11 21:21:00,60.6,39.1,30.14,ENE,67,0.0,-999.0,45,-99.99,,,0.00,Acu-Link.com,2013-05-12 04:21:00,
2013-05-11 21:36:00,60.1,36.9,30.15,East,90,0.0,-999.0,42,-99.99,,,0.00,Acu-Link.com,2013-05-12 04:36:00,
2013-05-11 21:51:00,59.7,38.9,30.15,NE,45,0.0,-999.0,46,-99.99,,,0.00,Acu-Link.com,2013-05-12 04:51:00,
2013-05-11 22:06:00,60.4,36.0,30.15,NE,45,0.0,-999.0,40,-99.99,,,0.00,Acu-Link.com,2013-05-12 05:06:00,
2013-05-11 22:21:00,59.9,34.9,30.18,NE,45,0.0,-999.0,39,-99.99,,,0.00,Acu-Link.com,2013-05-12 05:21:00,
2013-05-11 22:36:00,59.2,33.6,30.15,ENE,67,0.0,-999.0,38,-99.99,,,0.00,Acu-Link.com,2013-05-12 05:36:00,
2013-05-11 22:51:00,58.6,37.9,30.15,ESE,112,0.0,-999.0,46,-99.99,,,0.00,Acu-Link.com,2013-05-12 05:51:00,
2013-05-11 23:06:00,58.3,38.2,30.16,East,90,0.0,-999.0,47,-99.99,,,0.00,Acu-Link.com,2013-05-12 06:06:00,
2013-05-11 23:21:00,58.1,35.7,30.16,ENE,67,0.0,-999.0,43,-99.99,,,0.00,Acu-Link.com,2013-05-12 06:21:00,
2013-05-11 23:37:00,57.9,36.7,30.16,NE,45,0.0,-999.0,45,-99.99,,,0.00,Acu-Link.com,2013-05-12 06:37:00,
2013-05-11 23:52:00,57.9,33.7,30.16,NE,45,0.0,-999.0,40,-99.99,,,0.00,Acu-Link.com,2013-05-12 06:52:00,